| time (UTC) | temp F | wind direction | speed MPH | gust MPH | rain 1hr in | rain 24hr in | rain mn in | humidity % | barometer mb |
| 20260507083520 | 58 | 349 | 6.0 | 9.0 | 0.00 | 0.01 | 0.00 | 93 | 1016.8 |
| 20260507083026 | 58 | 348 | 6.0 | 7.0 | 0.00 | 0.01 | 0.00 | 93 | 1016.8 |
| 20260507082533 | 58 | 348 | 6.0 | 9.0 | 0.00 | 0.01 | 0.00 | 93 | 1016.8 |
| 20260507082021 | 58 | 320 | 3.0 | 5.0 | 0.00 | 0.01 | 0.00 | 93 | 1016.8 |
| 20260507081527 | 59 | 356 | 4.0 | 6.0 | 0.00 | 0.01 | 0.00 | 93 | 1016.8 |
| 20260507081036 | 59 | 5 | 6.0 | 8.0 | 0.00 | 0.01 | 0.00 | 93 | 1016.8 |
| 20260507080522 | 59 | 329 | 5.0 | 7.0 | 0.00 | 0.01 | 0.00 | 93 | 1016.8 |
| 20260507080029 | 59 | 340 | 2.0 | 5.0 | 0.00 | 0.01 | 0.00 | 93 | 1016.0 |
| 20260507075517 | 59 | 357 | 4.0 | 6.0 | 0.00 | 0.01 | 0.00 | 92 | 1016.0 |
| 20260507075024 | 59 | 359 | 6.0 | 8.0 | 0.00 | 0.01 | 0.00 | 92 | 1016.5 |
| 20260507074530 | 59 | 6 | 4.0 | 6.0 | 0.00 | 0.01 | 0.00 | 92 | 1016.8 |
| 20260507074018 | 59 | 15 | 4.0 | 6.0 | 0.00 | 0.01 | 0.00 | 92 | 1016.6 |
| 20260507073525 | 59 | 24 | 3.0 | 4.0 | 0.00 | 0.01 | 0.00 | 92 | 1015.8 |
| 20260507073031 | 59 | 14 | 5.0 | 7.0 | 0.00 | 0.01 | 0.00 | 92 | 1015.8 |
| 20260507072520 | 59 | 20 | 5.0 | 7.0 | 0.00 | 0.01 | 0.00 | 92 | 1016.1 |
| 20260507072026 | 59 | 341 | 6.0 | 10.0 | 0.00 | 0.01 | 0.00 | 91 | 1016.2 |
| 20260507071533 | 59 | 4 | 6.0 | 7.0 | 0.00 | 0.01 | 0.00 | 91 | 1016.2 |
| 20260507071021 | 59 | 41 | 6.0 | 8.0 | 0.00 | 0.01 | 0.00 | 91 | 1016.3 |
| 20260507070548 | 59 | 1 | 5.0 | 7.0 | 0.00 | 0.01 | 0.00 | 91 | 1016.3 |
| 20260507070016 | 59 | 345 | 5.0 | 6.0 | 0.00 | 0.01 | 0.00 | 91 | 1016.4 |
| 20260507065522 | 59 | 347 | 6.0 | 10.0 | 0.00 | 0.01 | 0.00 | 91 | 1016.4 |
| 20260507065049 | 59 | 2 | 6.0 | 9.0 | 0.00 | 0.01 | 0.00 | 91 | 1016.1 |
| 20260507064517 | 59 | 351 | 5.0 | 7.0 | 0.00 | 0.01 | 0.00 | 90 | 1015.8 |
| 20260507064024 | 59 | 3 | 6.0 | 9.0 | 0.00 | 0.01 | 0.00 | 90 | 1015.9 |
| 20260507063530 | 59 | 27 | 6.0 | 9.0 | 0.00 | 0.01 | 0.00 | 90 | 1016.4 |
| 20260507063019 | 59 | 35 | 7.0 | 9.0 | 0.00 | 0.01 | 0.00 | 90 | 1016.4 |
| 20260507062525 | 59 | 14 | 7.0 | 10.0 | 0.00 | 0.01 | 0.00 | 90 | 1016.2 |
| 20260507062052 | 60 | 351 | 7.0 | 12.0 | 0.00 | 0.01 | 0.00 | 90 | 1016.2 |
| 20260507061520 | 60 | 14 | 7.0 | 10.0 | 0.00 | 0.01 | 0.00 | 90 | 1016.3 |
| 20260507061027 | 60 | 20 | 7.0 | 9.0 | 0.00 | 0.01 | 0.00 | 90 | 1016.5 |
| 20260507060533 | 60 | 348 | 6.0 | 10.0 | 0.00 | 0.01 | 0.00 | 90 | 1016.5 |
| 20260507060021 | 60 | 350 | 6.0 | 8.0 | 0.00 | 0.01 | 0.00 | 90 | 1016.4 |
| 20260507055528 | 60 | 342 | 6.0 | 8.0 | 0.00 | 0.01 | 0.00 | 90 | 1016.4 |
| 20260507055016 | 60 | 327 | 6.0 | 8.0 | 0.00 | 0.01 | 0.00 | 90 | 1016.1 |
| 20260507054523 | 60 | 345 | 6.0 | 8.0 | 0.00 | 0.01 | 0.00 | 90 | 1016.0 |
| 20260507054049 | 60 | 323 | 7.0 | 11.0 | 0.00 | 0.01 | 0.00 | 90 | 1016.0 |
| 20260507053518 | 60 | 335 | 6.0 | 8.0 | 0.00 | 0.01 | 0.00 | 90 | 1016.0 |
| 20260507053024 | 60 | 355 | 7.0 | 13.0 | 0.00 | 0.01 | 0.00 | 90 | 1016.0 |
| 20260507052551 | 60 | 1 | 8.0 | 12.0 | 0.00 | 0.01 | 0.00 | 90 | 1016.2 |
| 20260507052039 | 60 | 343 | 7.0 | 9.0 | 0.00 | 0.01 | 0.00 | 90 | 1016.3 |
| 20260507051546 | 60 | 350 | 7.0 | 9.0 | 0.00 | 0.01 | 0.00 | 90 | 1016.2 |
| 20260507051112 | 60 | 347 | 7.0 | 10.0 | 0.00 | 0.01 | 0.00 | 90 | 1016.0 |
| 20260507050520 | 60 | 4 | 7.0 | 10.0 | 0.00 | 0.01 | 0.00 | 90 | 1016.0 |
| 20260507050047 | 60 | 355 | 8.0 | 10.0 | 0.00 | 0.01 | 0.00 | 90 | 1016.0 |
| 20260507045553 | 60 | 348 | 7.0 | 11.0 | 0.00 | 0.01 | 0.01 | 90 | 1016.0 |
| 20260507045022 | 60 | 331 | 7.0 | 10.0 | 0.00 | 0.01 | 0.01 | 90 | 1016.3 |
| 20260507044548 | 60 | 20 | 7.0 | 9.0 | 0.00 | 0.01 | 0.01 | 90 | 1016.5 |
| 20260507044016 | 60 | 344 | 8.0 | 17.0 | 0.00 | 0.01 | 0.01 | 90 | 1016.5 |
| 20260507043523 | 60 | 346 | 8.0 | 10.0 | 0.00 | 0.01 | 0.01 | 90 | 1016.3 |
| 20260507043029 | 60 | 334 | 9.0 | 10.0 | 0.00 | 0.01 | 0.01 | 90 | 1016.3 |
| 20260507042517 | 61 | 353 | 8.0 | 11.0 | 0.00 | 0.01 | 0.01 | 90 | 1016.2 |
| 20260507042024 | 61 | 342 | 9.0 | 11.0 | 0.00 | 0.01 | 0.01 | 90 | 1016.2 |
| 20260507041531 | 61 | 8 | 8.0 | 11.0 | 0.00 | 0.01 | 0.01 | 90 | 1016.2 |
| 20260507041019 | 61 | 323 | 7.0 | 9.0 | 0.00 | 0.01 | 0.01 | 90 | 1016.4 |
| 20260507040546 | 61 | 355 | 9.0 | 11.0 | 0.00 | 0.01 | 0.01 | 90 | 1016.4 |
| 20260507040052 | 61 | 346 | 6.0 | 10.0 | 0.00 | 0.01 | 0.01 | 90 | 1016.5 |
| 20260507035520 | 61 | 332 | 6.0 | 9.0 | 0.00 | 0.01 | 0.01 | 90 | 1016.5 |
| 20260507035027 | 61 | 337 | 8.0 | 13.0 | 0.00 | 0.01 | 0.01 | 90 | 1016.2 |
| 20260507034536 | 61 | 354 | 7.0 | 11.0 | 0.00 | 0.01 | 0.01 | 90 | 1016.0 |
| 20260507034022 | 61 | 345 | 7.0 | 11.0 | 0.00 | 0.01 | 0.01 | 90 | 1016.0 |
| 20260507033549 | 61 | 327 | 8.0 | 11.0 | 0.00 | 0.01 | 0.01 | 90 | 1015.8 |
| 20260507033037 | 61 | 337 | 7.0 | 10.0 | 0.00 | 0.01 | 0.01 | 91 | 1015.8 |
| 20260507032523 | 61 | 334 | 9.0 | 13.0 | 0.00 | 0.01 | 0.01 | 91 | 1015.8 |
| 20260507032051 | 61 | 328 | 10.0 | 12.0 | 0.00 | 0.01 | 0.01 | 91 | 1015.8 |
| 20260507031539 | 61 | 348 | 10.0 | 13.0 | 0.00 | 0.01 | 0.01 | 91 | 1015.8 |
| 20260507031025 | 61 | 332 | 7.0 | 8.0 | 0.00 | 0.01 | 0.01 | 91 | 1015.6 |
| 20260507030552 | 61 | 339 | 6.0 | 11.0 | 0.00 | 0.01 | 0.01 | 90 | 1015.6 |
| 20260507030020 | 61 | 326 | 8.0 | 11.0 | 0.00 | 0.01 | 0.01 | 90 | 1016.0 |
| 20260507025547 | 61 | 317 | 9.0 | 12.0 | 0.00 | 0.01 | 0.01 | 90 | 1016.0 |
| 20260507025033 | 61 | 345 | 7.0 | 8.0 | 0.00 | 0.01 | 0.01 | 90 | 1016.0 |
| 20260507024542 | 61 | 323 | 6.0 | 10.0 | 0.00 | 0.01 | 0.01 | 90 | 1016.0 |
| 20260507024028 | 61 | 328 | 7.0 | 12.0 | 0.00 | 0.01 | 0.01 | 90 | 1015.9 |
| 20260507023516 | 61 | 355 | 7.0 | 10.0 | 0.00 | 0.01 | 0.01 | 90 | 1015.5 |
| 20260507023023 | 61 | 2 | 9.0 | 11.0 | 0.00 | 0.01 | 0.01 | 90 | 1015.5 |
| 20260507022530 | 61 | 324 | 5.0 | 7.0 | 0.00 | 0.01 | 0.01 | 90 | 1015.2 |
| 20260507022018 | 61 | 331 | 7.0 | 10.0 | 0.00 | 0.01 | 0.01 | 90 | 1015.1 |
| 20260507021525 | 61 | 336 | 8.0 | 11.0 | 0.00 | 0.01 | 0.01 | 90 | 1015.2 |
| 20260507021031 | 61 | 335 | 8.0 | 12.0 | 0.00 | 0.01 | 0.01 | 90 | 1015.3 |
| 20260507020520 | 61 | 340 | 9.0 | 12.0 | 0.00 | 0.01 | 0.01 | 90 | 1015.3 |
| 20260507020047 | 61 | 332 | 8.0 | 9.0 | 0.00 | 0.01 | 0.01 | 90 | 1015.0 |
| 20260507015610 | 61 | 8.0 | 8.0 | 0.00 | 0.01 | 0.01 | 90 | 1015.0 | |
| 20260507015031 | 61 | 356 | 6.0 | 9.0 | 0.00 | 0.01 | 0.01 | 90 | 1014.9 |
| 20260507014520 | 61 | 337 | 6.0 | 8.0 | 0.00 | 0.01 | 0.01 | 90 | 1014.8 |
| 20260507014026 | 61 | 323 | 5.0 | 8.0 | 0.00 | 0.01 | 0.01 | 90 | 1014.7 |
| 20260507013533 | 61 | 332 | 4.0 | 7.0 | 0.00 | 0.01 | 0.01 | 90 | 1014.4 |
| 20260507013022 | 61 | 333 | 7.0 | 11.0 | 0.00 | 0.01 | 0.01 | 90 | 1014.4 |
| 20260507012548 | 61 | 327 | 6.0 | 9.0 | 0.00 | 0.01 | 0.01 | 90 | 1014.3 |
| 20260507012036 | 61 | 347 | 6.0 | 8.0 | 0.00 | 0.01 | 0.01 | 90 | 1014.2 |
| 20260507011523 | 61 | 329 | 6.0 | 9.0 | 0.00 | 0.01 | 0.01 | 90 | 1014.3 |
| 20260507011030 | 61 | 325 | 6.0 | 9.0 | 0.00 | 0.01 | 0.01 | 89 | 1014.3 |
| 20260507010518 | 61 | 336 | 5.0 | 8.0 | 0.00 | 0.01 | 0.01 | 89 | 1014.3 |
| 20260507010024 | 61 | 329 | 5.0 | 8.0 | 0.00 | 0.01 | 0.01 | 89 | 1014.2 |
| 20260507005531 | 61 | 344 | 7.0 | 9.0 | 0.00 | 0.01 | 0.01 | 89 | 1014.2 |
| 20260507005039 | 62 | 331 | 7.0 | 10.0 | 0.00 | 0.01 | 0.01 | 89 | 1014.0 |
| 20260507004526 | 62 | 329 | 7.0 | 9.0 | 0.00 | 0.01 | 0.01 | 89 | 1013.9 |
| 20260507004032 | 62 | 339 | 6.0 | 10.0 | 0.00 | 0.01 | 0.01 | 89 | 1013.9 |
| 20260507003521 | 62 | 328 | 7.0 | 9.0 | 0.00 | 0.01 | 0.01 | 89 | 1013.7 |
| 20260507003027 | 61 | 331 | 7.0 | 10.0 | 0.00 | 0.01 | 0.01 | 88 | 1013.7 |
| 20260507002516 | 61 | 342 | 7.0 | 9.0 | 0.00 | 0.01 | 0.01 | 88 | 1013.8 |
| 20260507002042 | 62 | 327 | 7.0 | 10.0 | 0.00 | 0.01 | 0.01 | 88 | 1013.8 |
| 20260507001549 | 62 | 303 | 8.0 | 11.0 | 0.00 | 0.01 | 0.01 | 88 | 1013.8 |
| 20260507001017 | 62 | 332 | 7.0 | 11.0 | 0.00 | 0.01 | 0.01 | 88 | 1013.8 |
| 20260507000524 | 62 | 327 | 6.0 | 8.0 | 0.00 | 0.01 | 0.01 | 89 | 1013.8 |
| 20260507000030 | 62 | 308 | 6.0 | 10.0 | 0.00 | 0.01 | 0.01 | 88 | 1013.6 |
| 20260506235518 | 62 | 315 | 6.0 | 8.0 | 0.00 | 0.01 | 0.01 | 88 | 1013.6 |
| 20260506235025 | 62 | 304 | 7.0 | 11.0 | 0.00 | 0.01 | 0.01 | 88 | 1013.6 |
| 20260506234532 | 62 | 328 | 7.0 | 10.0 | 0.00 | 0.01 | 0.01 | 88 | 1013.6 |
| 20260506234020 | 62 | 316 | 8.0 | 11.0 | 0.00 | 0.01 | 0.01 | 88 | 1013.5 |
| 20260506233526 | 62 | 300 | 7.0 | 11.0 | 0.00 | 0.01 | 0.01 | 88 | 1013.4 |
| 20260506233033 | 62 | 342 | 6.0 | 9.0 | 0.00 | 0.01 | 0.01 | 88 | 1013.4 |
| 20260506232522 | 62 | 320 | 7.0 | 10.0 | 0.00 | 0.01 | 0.01 | 88 | 1013.4 |
| 20260506232048 | 62 | 297 | 8.0 | 10.0 | 0.00 | 0.01 | 0.01 | 88 | 1013.5 |
| 20260506231516 | 62 | 312 | 8.0 | 10.0 | 0.00 | 0.01 | 0.01 | 88 | 1013.5 |
| 20260506231023 | 62 | 328 | 8.0 | 11.0 | 0.00 | 0.01 | 0.01 | 88 | 1013.6 |
| 20260506230530 | 62 | 338 | 8.0 | 10.0 | 0.00 | 0.01 | 0.01 | 88 | 1013.6 |
| 20260506230018 | 62 | 311 | 9.0 | 12.0 | 0.00 | 0.01 | 0.01 | 88 | 1013.7 |
| 20260506225524 | 62 | 328 | 8.0 | 9.0 | 0.00 | 0.01 | 0.01 | 88 | 1013.7 |
| 20260506225031 | 61 | 306 | 7.0 | 10.0 | 0.00 | 0.01 | 0.01 | 89 | 1013.6 |
| 20260506224519 | 61 | 323 | 9.0 | 11.0 | 0.00 | 0.01 | 0.01 | 90 | 1013.6 |
| 20260506224026 | 61 | 311 | 7.0 | 10.0 | 0.00 | 0.01 | 0.01 | 90 | 1013.5 |
| 20260506223533 | 61 | 336 | 10.0 | 13.0 | 0.00 | 0.01 | 0.01 | 89 | 1013.3 |
| 20260506223041 | 61 | 336 | 8.0 | 11.0 | 0.00 | 0.01 | 0.01 | 89 | 1013.3 |
| 20260506222527 | 61 | 335 | 8.0 | 12.0 | 0.00 | 0.01 | 0.01 | 89 | 1013.4 |
| 20260506222016 | 61 | 328 | 8.0 | 14.0 | 0.00 | 0.01 | 0.01 | 89 | 1013.4 |
| 20260506221522 | 61 | 321 | 7.0 | 12.0 | 0.00 | 0.01 | 0.01 | 90 | 1013.5 |
| 20260506221049 | 60 | 302 | 8.0 | 10.0 | 0.00 | 0.01 | 0.01 | 90 | 1013.6 |
| 20260506220517 | 60 | 341 | 9.0 | 13.0 | 0.00 | 0.01 | 0.01 | 90 | 1013.6 |
| 20260506220024 | 60 | 323 | 9.0 | 12.0 | 0.00 | 0.01 | 0.01 | 90 | 1013.4 |
| 20260506215530 | 60 | 332 | 10.0 | 13.0 | 0.00 | 0.01 | 0.01 | 89 | 1013.4 |
| 20260506215019 | 61 | 355 | 8.0 | 14.0 | 0.00 | 0.01 | 0.01 | 89 | 1013.4 |
| 20260506214525 | 61 | 325 | 8.0 | 12.0 | 0.00 | 0.01 | 0.01 | 89 | 1013.4 |
| 20260506214032 | 61 | 330 | 9.0 | 13.0 | 0.00 | 0.01 | 0.01 | 89 | 1013.4 |
| 20260506213540 | 61 | 336 | 10.0 | 15.0 | 0.00 | 0.01 | 0.01 | 88 | 1013.4 |
| 20260506213027 | 61 | 314 | 10.0 | 15.0 | 0.00 | 0.01 | 0.01 | 88 | 1013.4 |
| 20260506212515 | 61 | 325 | 10.0 | 12.0 | 0.00 | 0.01 | 0.01 | 88 | 1013.4 |
| 20260506212022 | 61 | 345 | 11.0 | 16.0 | 0.00 | 0.01 | 0.01 | 88 | 1013.5 |
| 20260506211528 | 61 | 325 | 9.0 | 14.0 | 0.00 | 0.01 | 0.01 | 88 | 1013.5 |
| 20260506211017 | 61 | 337 | 10.0 | 16.0 | 0.00 | 0.01 | 0.01 | 88 | 1013.6 |
| 20260506210523 | 61 | 331 | 9.0 | 15.0 | 0.00 | 0.01 | 0.01 | 88 | 1013.6 |
| 20260506210030 | 61 | 307 | 10.0 | 14.0 | 0.00 | 0.01 | 0.01 | 88 | 1013.7 |
| 20260506205538 | 61 | 344 | 11.0 | 13.0 | 0.00 | 0.01 | 0.01 | 88 | 1013.7 |
| 20260506205025 | 63 | 319 | 11.0 | 15.0 | 0.00 | 0.01 | 0.01 | 85 | 1013.7 |
| 20260506204551 | 63 | 318 | 9.0 | 12.0 | 0.00 | 0.01 | 0.01 | 86 | 1013.7 |
| 20260506204020 | 62 | 315 | 10.0 | 14.0 | 0.00 | 0.01 | 0.01 | 87 | 1013.7 |
| 20260506203527 | 62 | 312 | 9.0 | 15.0 | 0.00 | 0.01 | 0.01 | 87 | 1013.8 |
| 20260506203033 | 62 | 332 | 11.0 | 15.0 | 0.00 | 0.01 | 0.01 | 88 | 1013.8 |
| 20260506202541 | 62 | 328 | 13.0 | 16.0 | 0.00 | 0.01 | 0.01 | 87 | 1013.6 |
| 20260506202028 | 63 | 324 | 11.0 | 14.0 | 0.00 | 0.01 | 0.01 | 86 | 1013.6 |
| 20260506201516 | 63 | 330 | 10.0 | 17.0 | 0.00 | 0.01 | 0.01 | 86 | 1013.6 |
| 20260506201043 | 64 | 339 | 9.0 | 12.0 | 0.00 | 0.01 | 0.01 | 85 | 1013.6 |
| 20260506200529 | 64 | 333 | 8.0 | 16.0 | 0.00 | 0.01 | 0.01 | 85 | 1013.6 |
| 20260506200038 | 64 | 327 | 13.0 | 18.0 | 0.00 | 0.01 | 0.01 | 85 | 1013.4 |
| 20260506195524 | 65 | 330 | 12.0 | 16.0 | 0.00 | 0.01 | 0.01 | 84 | 1013.4 |
| 20260506195051 | 65 | 312 | 12.0 | 15.0 | 0.00 | 0.01 | 0.01 | 85 | 1013.4 |
| 20260506194519 | 66 | 327 | 11.0 | 17.0 | 0.00 | 0.01 | 0.01 | 84 | 1013.4 |
| 20260506194026 | 66 | 326 | 10.0 | 16.0 | 0.00 | 0.01 | 0.01 | 85 | 1013.4 |
| 20260506193532 | 65 | 328 | 10.0 | 14.0 | 0.00 | 0.01 | 0.01 | 86 | 1013.4 |
| 20260506193021 | 65 | 338 | 12.0 | 13.0 | 0.00 | 0.01 | 0.01 | 86 | 1013.4 |
| 20260506192527 | 65 | 343 | 11.0 | 15.0 | 0.00 | 0.01 | 0.01 | 86 | 1013.4 |
| 20260506192016 | 66 | 338 | 10.0 | 16.0 | 0.00 | 0.01 | 0.01 | 86 | 1013.5 |
| 20260506191523 | 66 | 328 | 11.0 | 14.0 | 0.00 | 0.01 | 0.01 | 86 | 1013.6 |
| 20260506191029 | 67 | 324 | 9.0 | 14.0 | 0.00 | 0.01 | 0.01 | 86 | 1013.7 |
| 20260506190518 | 67 | 308 | 7.0 | 13.0 | 0.00 | 0.01 | 0.01 | 86 | 1013.7 |
| 20260506190024 | 67 | 323 | 9.0 | 12.0 | 0.00 | 0.01 | 0.01 | 86 | 1013.5 |
| 20260506185531 | 68 | 314 | 10.0 | 14.0 | 0.00 | 0.01 | 0.01 | 85 | 1013.5 |
| 20260506185019 | 68 | 329 | 11.0 | 14.0 | 0.00 | 0.01 | 0.01 | 85 | 1013.3 |
| 20260506184526 | 70 | 340 | 11.0 | 16.0 | 0.00 | 0.01 | 0.01 | 83 | 1013.2 |
| 20260506184032 | 72 | 306 | 9.0 | 13.0 | 0.00 | 0.01 | 0.01 | 81 | 1013.2 |
| 20260506183541 | 73 | 324 | 8.0 | 15.0 | 0.00 | 0.01 | 0.01 | 80 | 1013.1 |
| 20260506183027 | 74 | 359 | 7.0 | 10.0 | 0.00 | 0.01 | 0.01 | 80 | 1013.1 |
| 20260506182535 | 75 | 317 | 8.0 | 12.0 | 0.00 | 0.01 | 0.01 | 77 | 1013.2 |
| 20260506182042 | 76 | 308 | 6.0 | 8.0 | 0.00 | 0.01 | 0.01 | 77 | 1013.2 |
| 20260506181528 | 75 | 333 | 5.0 | 6.0 | 0.00 | 0.01 | 0.01 | 78 | 1013.2 |
| 20260506181037 | 75 | 3 | 6.0 | 9.0 | 0.00 | 0.01 | 0.01 | 77 | 1013.1 |
| 20260506180524 | 75 | 300 | 6.0 | 8.0 | 0.00 | 0.01 | 0.01 | 77 | 1013.1 |
| 20260506180030 | 75 | 333 | 5.0 | 8.0 | 0.00 | 0.01 | 0.01 | 79 | 1012.7 |
| 20260506175518 | 74 | 326 | 6.0 | 8.0 | 0.00 | 0.01 | 0.01 | 80 | 1012.7 |
| 20260506175025 | 73 | 123 | 4.0 | 7.0 | 0.00 | 0.01 | 0.01 | 81 | 1012.6 |
| 20260506174532 | 73 | 137 | 4.0 | 7.0 | 0.00 | 0.01 | 0.01 | 81 | 1012.6 |
| 20260506174020 | 72 | 2 | 4.0 | 7.0 | 0.00 | 0.01 | 0.01 | 81 | 1012.6 |
| 20260506173527 | 71 | 7 | 4.0 | 6.0 | 0.00 | 0.01 | 0.01 | 82 | 1012.7 |
| 20260506173015 | 71 | 359 | 5.0 | 8.0 | 0.00 | 0.01 | 0.01 | 83 | 1012.7 |
| 20260506172521 | 71 | 73 | 4.0 | 6.0 | 0.00 | 0.01 | 0.01 | 84 | 1012.7 |
| 20260506172028 | 70 | 25 | 5.0 | 7.0 | 0.00 | 0.01 | 0.01 | 84 | 1012.7 |
| 20260506171516 | 69 | 82 | 6.0 | 9.0 | 0.01 | 0.01 | 0.01 | 85 | 1012.7 |
| 20260506171023 | 69 | 53 | 6.0 | 8.0 | 0.01 | 0.01 | 0.01 | 86 | 1012.7 |
| 20260506170529 | 68 | 58 | 6.0 | 8.0 | 0.01 | 0.01 | 0.01 | 87 | 1012.7 |
| 20260506170058 | 68 | 79 | 6.0 | 7.0 | 0.01 | 0.01 | 0.01 | 89 | 1012.7 |
| 20260506165524 | 67 | 39 | 6.0 | 9.0 | 0.01 | 0.01 | 0.01 | 91 | 1012.7 |
| 20260506165031 | 66 | 10 | 7.0 | 9.0 | 0.01 | 0.01 | 0.01 | 92 | 1012.9 |
| 20260506164519 | 66 | 59 | 4.0 | 8.0 | 0.01 | 0.01 | 0.01 | 93 | 1012.9 |
| 20260506164026 | 65 | 41 | 6.0 | 8.0 | 0.01 | 0.01 | 0.01 | 94 | 1013.1 |
| 20260506163553 | 64 | 36 | 6.0 | 8.0 | 0.01 | 0.01 | 0.01 | 96 | 1013.9 |
| 20260506163021 | 63 | 339 | 8.0 | 10.0 | 0.01 | 0.01 | 0.01 | 97 | 1013.9 |
| 20260506162527 | 62 | 345 | 8.0 | 12.0 | 0.01 | 0.01 | 0.01 | 98 | 1013.9 |
| 20260506162016 | 62 | 336 | 8.0 | 11.0 | 0.01 | 0.01 | 0.01 | 98 | 1013.9 |
| 20260506161522 | 61 | 354 | 6.0 | 8.0 | 0.00 | 0.00 | 0.00 | 98 | 1014.0 |
| 20260506161029 | 61 | 349 | 8.0 | 11.0 | 0.00 | 0.00 | 0.00 | 98 | 1014.2 |
| 20260506160537 | 61 | 323 | 11.0 | 16.0 | 0.00 | 0.00 | 0.00 | 98 | 1014.2 |
| 20260506160024 | 61 | 320 | 14.0 | 21.0 | 0.00 | 0.00 | 0.00 | 98 | 1014.2 |
| 20260506155611 | 61 | 336 | 14.0 | 18.0 | 0.00 | 0.00 | 0.00 | 98 | 1014.2 |
| 20260506155019 | 61 | 314 | 14.0 | 20.0 | 0.00 | 0.00 | 0.00 | 98 | 1014.0 |
| 20260506154526 | 62 | 309 | 13.0 | 21.0 | 0.00 | 0.00 | 0.00 | 97 | 1013.9 |
| 20260506154032 | 63 | 324 | 11.0 | 16.0 | 0.00 | 0.00 | 0.00 | 97 | 1013.9 |
| 20260506153520 | 63 | 331 | 10.0 | 19.0 | 0.00 | 0.00 | 0.00 | 97 | 1014.0 |
| 20260506153027 | 63 | 308 | 12.0 | 15.0 | 0.00 | 0.00 | 0.00 | 97 | 1014.0 |
| 20260506152515 | 64 | 343 | 12.0 | 17.0 | 0.00 | 0.00 | 0.00 | 97 | 1013.9 |
| 20260506152022 | 64 | 320 | 12.0 | 17.0 | 0.00 | 0.00 | 0.00 | 97 | 1013.9 |
| 20260506151528 | 65 | 321 | 12.0 | 19.0 | 0.00 | 0.00 | 0.00 | 96 | 1013.6 |
| 20260506151017 | 65 | 325 | 9.0 | 12.0 | 0.00 | 0.00 | 0.00 | 96 | 1013.2 |
| 20260506150543 | 65 | 323 | 9.0 | 14.0 | 0.00 | 0.00 | 0.00 | 96 | 1013.2 |
| 20260506150030 | 65 | 322 | 12.0 | 16.0 | 0.00 | 0.00 | 0.00 | 96 | 1012.7 |
| 20260506145518 | 66 | 354 | 12.0 | 18.0 | 0.00 | 0.00 | 0.00 | 95 | 1012.7 |
| 20260506145025 | 66 | 331 | 11.0 | 13.0 | 0.00 | 0.00 | 0.00 | 95 | 1012.4 |
| 20260506144532 | 67 | 350 | 10.0 | 13.0 | 0.00 | 0.00 | 0.00 | 95 | 1012.2 |
| 20260506144020 | 68 | 344 | 12.0 | 18.0 | 0.00 | 0.00 | 0.00 | 94 | 1012.1 |
| 20260506143526 | 70 | 334 | 11.0 | 16.0 | 0.00 | 0.00 | 0.00 | 93 | 1011.7 |
| 20260506143033 | 73 | 331 | 10.0 | 14.0 | 0.00 | 0.00 | 0.00 | 91 | 1011.7 |
| 20260506142521 | 79 | 349 | 6.0 | 14.0 | 0.00 | 0.00 | 0.00 | 88 | 1011.3 |
| 20260506142048 | 79 | 62 | 2.0 | 3.0 | 0.00 | 0.00 | 0.00 | 89 | 1011.2 |
| 20260506141516 | 79 | 90 | 2.0 | 4.0 | 0.00 | 0.00 | 0.00 | 89 | 1011.2 |
| 20260506141103 | 79 | 134 | 3.0 | 4.0 | 0.00 | 0.00 | 0.00 | 90 | 1011.2 |
| 20260506140529 | 78 | 161 | 3.0 | 6.0 | 0.00 | 0.00 | 0.00 | 91 | 1011.2 |
| 20260506140018 | 78 | 129 | 3.0 | 4.0 | 0.00 | 0.00 | 0.00 | 91 | 1011.3 |
| 20260506135525 | 78 | 108 | 2.0 | 3.0 | 0.00 | 0.00 | 0.00 | 92 | 1011.3 |
| 20260506135031 | 77 | 194 | 1.0 | 4.0 | 0.00 | 0.00 | 0.00 | 93 | 1011.0 |
| 20260506134519 | 77 | 157 | 3.0 | 5.0 | 0.00 | 0.00 | 0.00 | 93 | 1010.8 |
| 20260506134026 | 76 | 148 | 1.0 | 4.0 | 0.00 | 0.00 | 0.00 | 94 | 1010.9 |
| 20260506133532 | 76 | 138 | 3.0 | 4.0 | 0.00 | 0.00 | 0.00 | 94 | 1011.0 |
| 20260506133021 | 76 | 127 | 1.0 | 3.0 | 0.00 | 0.00 | 0.00 | 94 | 1011.0 |
| 20260506132527 | 76 | 134 | 3.0 | 4.0 | 0.00 | 0.00 | 0.00 | 94 | 1010.9 |
| 20260506132016 | 76 | 122 | 3.0 | 5.0 | 0.00 | 0.00 | 0.00 | 94 | 1010.8 |
| 20260506131522 | 76 | 176 | 5.0 | 8.0 | 0.00 | 0.00 | 0.00 | 94 | 1010.7 |
| 20260506131029 | 77 | 152 | 5.0 | 7.0 | 0.00 | 0.00 | 0.00 | 94 | 1010.5 |
| 20260506130517 | 77 | 155 | 5.0 | 7.0 | 0.00 | 0.00 | 0.00 | 94 | 1010.5 |
| 20260506130024 | 76 | 153 | 4.0 | 5.0 | 0.00 | 0.00 | 0.00 | 95 | 1010.4 |
| 20260506125611 | 76 | 161 | 4.0 | 6.0 | 0.00 | 0.00 | 0.00 | 96 | 1010.4 |
| 20260506125019 | 76 | 140 | 3.0 | 5.0 | 0.00 | 0.00 | 0.00 | 96 | 1010.2 |
| 20260506124525 | 75 | 172 | 3.0 | 5.0 | 0.00 | 0.00 | 0.00 | 97 | 1010.2 |
| 20260506124052 | 75 | 149 | 4.0 | 6.0 | 0.00 | 0.00 | 0.00 | 98 | 1010.2 |
| 20260506123521 | 75 | 145 | 3.0 | 6.0 | 0.00 | 0.00 | 0.00 | 98 | 1010.2 |
| 20260506123027 | 74 | 125 | 3.0 | 4.0 | 0.00 | 0.00 | 0.00 | 99 | 1010.2 |
| 20260506122515 | 74 | 141 | 3.0 | 4.0 | 0.00 | 0.00 | 0.00 | 99 | 1010.2 |
| 20260506122042 | 74 | 171 | 2.0 | 3.0 | 0.00 | 0.00 | 0.00 | 99 | 1010.2 |
| 20260506121528 | 74 | 168 | 3.0 | 4.0 | 0.00 | 0.00 | 0.00 | 99 | 1010.2 |
| 20260506121017 | 74 | 174 | 3.0 | 5.0 | 0.00 | 0.00 | 0.00 | 99 | 1010.2 |
| 20260506120543 | 74 | 170 | 3.0 | 5.0 | 0.00 | 0.00 | 0.00 | 99 | 1010.2 |
| 20260506120030 | 74 | 161 | 4.0 | 5.0 | 0.00 | 0.00 | 0.00 | 98 | 1010.1 |
| 20260506115518 | 74 | 167 | 4.0 | 5.0 | 0.00 | 0.00 | 0.00 | 98 | 1010.1 |
| 20260506115025 | 74 | 186 | 4.0 | 4.0 | 0.00 | 0.00 | 0.00 | 98 | 1010.1 |
| 20260506114532 | 74 | 175 | 3.0 | 4.0 | 0.00 | 0.00 | 0.00 | 98 | 1010.1 |
| 20260506114020 | 74 | 157 | 4.0 | 5.0 | 0.00 | 0.00 | 0.00 | 98 | 1010.1 |
| 20260506113526 | 74 | 158 | 4.0 | 5.0 | 0.00 | 0.00 | 0.00 | 98 | 1010.3 |
| 20260506113033 | 74 | 169 | 3.0 | 6.0 | 0.00 | 0.00 | 0.00 | 98 | 1010.3 |
| 20260506112521 | 74 | 156 | 3.0 | 5.0 | 0.00 | 0.00 | 0.00 | 98 | 1010.4 |
| 20260506112028 | 74 | 183 | 3.0 | 5.0 | 0.00 | 0.00 | 0.00 | 98 | 1010.4 |
| 20260506111516 | 74 | 165 | 3.0 | 5.0 | 0.00 | 0.00 | 0.00 | 98 | 1010.3 |
| 20260506111023 | 74 | 170 | 2.0 | 4.0 | 0.00 | 0.00 | 0.00 | 98 | 1010.3 |
| 20260506110529 | 74 | 186 | 3.0 | 4.0 | 0.00 | 0.00 | 0.00 | 98 | 1010.3 |
| 20260506110018 | 74 | 190 | 4.0 | 5.0 | 0.00 | 0.00 | 0.00 | 98 | 1010.2 |
| 20260506105524 | 74 | 193 | 4.0 | 5.0 | 0.00 | 0.00 | 0.00 | 98 | 1010.2 |
| 20260506105031 | 74 | 190 | 3.0 | 5.0 | 0.00 | 0.00 | 0.00 | 97 | 1010.2 |
| 20260506104519 | 74 | 203 | 4.0 | 6.0 | 0.00 | 0.00 | 0.00 | 97 | 1010.2 |
| 20260506104046 | 74 | 194 | 2.0 | 3.0 | 0.00 | 0.00 | 0.00 | 97 | 1010.1 |
| 20260506103532 | 75 | 205 | 3.0 | 5.0 | 0.00 | 0.00 | 0.00 | 97 | 1010.0 |
| 20260506103020 | 75 | 190 | 4.0 | 6.0 | 0.00 | 0.00 | 0.00 | 97 | 1010.0 |
| 20260506102527 | 75 | 196 | 3.0 | 5.0 | 0.00 | 0.00 | 0.00 | 97 | 1009.9 |
| 20260506102015 | 75 | 182 | 3.0 | 5.0 | 0.00 | 0.00 | 0.00 | 96 | 1009.8 |
| 20260506101522 | 75 | 180 | 4.0 | 5.0 | 0.00 | 0.00 | 0.00 | 96 | 1009.8 |
| 20260506101028 | 75 | 205 | 3.0 | 7.0 | 0.00 | 0.00 | 0.00 | 96 | 1009.7 |
| 20260506100516 | 75 | 195 | 4.0 | 6.0 | 0.00 | 0.00 | 0.00 | 96 | 1009.7 |
| 20260506100023 | 75 | 207 | 3.0 | 6.0 | 0.00 | 0.00 | 0.00 | 96 | 1009.8 |
| 20260506095529 | 75 | 160 | 5.0 | 7.0 | 0.00 | 0.00 | 0.00 | 96 | 1009.8 |
| 20260506095018 | 75 | 196 | 4.0 | 5.0 | 0.00 | 0.00 | 0.00 | 96 | 1009.6 |
| 20260506094524 | 75 | 187 | 3.0 | 6.0 | 0.00 | 0.00 | 0.00 | 96 | 1009.5 |
| 20260506094111 | 75 | 182 | 4.0 | 7.0 | 0.00 | 0.00 | 0.00 | 96 | 1009.4 |
| 20260506093519 | 75 | 225 | 3.0 | 6.0 | 0.00 | 0.00 | 0.00 | 96 | 1009.3 |
| 20260506093026 | 75 | 200 | 4.0 | 6.0 | 0.00 | 0.00 | 0.00 | 96 | 1009.3 |
| 20260506092532 | 75 | 157 | 2.0 | 4.0 | 0.00 | 0.00 | 0.00 | 96 | 1009.3 |
| 20260506092021 | 75 | 163 | 4.0 | 7.0 | 0.00 | 0.00 | 0.00 | 96 | 1009.3 |
| 20260506091528 | 75 | 184 | 4.0 | 7.0 | 0.00 | 0.00 | 0.00 | 96 | 1009.2 |
| 20260506091016 | 75 | 192 | 4.0 | 8.0 | 0.00 | 0.00 | 0.00 | 96 | 1009.1 |
| 20260506090522 | 75 | 190 | 5.0 | 8.0 | 0.00 | 0.00 | 0.00 | 96 | 1009.1 |
| 20260506090049 | 75 | 175 | 6.0 | 8.0 | 0.00 | 0.00 | 0.00 | 96 | 1008.8 |
| 20260506085517 | 75 | 191 | 5.0 | 8.0 | 0.00 | 0.00 | 0.00 | 96 | 1008.8 |
| 20260506085024 | 75 | 171 | 5.0 | 8.0 | 0.00 | 0.00 | 0.00 | 96 | 1009.0 |
| 20260506084530 | 75 | 188 | 4.0 | 6.0 | 0.00 | 0.00 | 0.00 | 96 | 1009.1 |
| 20260506084019 | 75 | 196 | 5.0 | 11.0 | 0.00 | 0.00 | 0.00 | 96 | 1009.0 |